When you browse on this site, cookies collect data to enhance your experience and personalize the content and advertising you see.
Visit our Privacy Policy to learn more. By continuing to use the site, you agree to this use of cookies and data.
  • Em Portugal
  • Lista de países
  • Para 7 dias
  • Temperatura da água
  • Mapa do tempo
  • Widgets de tempo
  • user-avatar
    Iniciar Sessão

    Previsão horária em Stepanakert

    Hoje, 23 Setembro, Segunda-feira

    Tempo Temperatura Precipitação Vento Pressão Humidade
    00:00 +11°C° 0 mm 1 m/s 695 mmHg 71%
    01:00 +11°C° 0 mm 1 m/s 694 mmHg 72%
    02:00 +11°C° 0 mm 1 m/s 694 mmHg 73%
    03:00 +11°C° 0 mm 1 m/s 694 mmHg 74%
    04:00 +11°C° 0 mm 1 m/s 694 mmHg 73%
    05:00 +11°C° 0 mm 1 m/s 694 mmHg 73%
    06:00 +11°C° 0 mm 1 m/s 694 mmHg 72%
    07:00 +12°C° 0 mm 1 m/s 694 mmHg 66%
    08:00 +14°C° 0 mm 1 m/s 694 mmHg 59%
    09:00 +16°C° 0 mm 1 m/s 694 mmHg 53%
    10:00 +17°C° 0 mm 2 m/s 694 mmHg 50%
    11:00 +18°C° 0 mm 2 m/s 694 mmHg 47%
    12:00 +20°C° 0 mm 2 m/s 694 mmHg 44%
    13:00 +20°C° 0 mm 2 m/s 693 mmHg 44%
    14:00 +20°C° 0 mm 2 m/s 692 mmHg 44%
    15:00 +20°C° 0 mm 2 m/s 692 mmHg 44%
    16:00 +19°C° 0 mm 2 m/s 692 mmHg 49%
    17:00 +18°C° 0 mm 1 m/s 691 mmHg 53%
    18:00 +16°C° 0 mm 1 m/s 691 mmHg 58%
    19:00 +15°C° 0 mm 1 m/s 691 mmHg 59%
    20:00 +15°C° 0 mm 1 m/s 692 mmHg 60%
    21:00 +15°C° 0 mm 1 m/s 692 mmHg 62%
    22:00 +14°C° 0 mm 1 m/s 692 mmHg 63%
    23:00 +14°C° 0 mm 1 m/s 692 mmHg 64%

    Amanhã, 24 Setembro, Terça-feira

    Tempo Temperatura Precipitação Vento Pressão Humidade
    00:00 +14°C° 0 mm 1 m/s 692 mmHg 65%
    01:00 +13°C° 0 mm 1 m/s 692 mmHg 67%
    02:00 +13°C° 0 mm 1 m/s 692 mmHg 69%
    03:00 +13°C° 0 mm 1 m/s 692 mmHg 70%
    04:00 +12°C° 0 mm 1 m/s 692 mmHg 71%
    05:00 +12°C° 0 mm 1 m/s 692 mmHg 71%
    06:00 +12°C° 0 mm 1 m/s 692 mmHg 72%
    07:00 +14°C° 0 mm 1 m/s 693 mmHg 67%
    08:00 +16°C° 0 mm 1 m/s 693 mmHg 61%
    09:00 +19°C° 0 mm 1 m/s 694 mmHg 56%
    10:00 +19°C° 0 mm 2 m/s 693 mmHg 55%
    11:00 +20°C° 0 mm 2 m/s 693 mmHg 55%
    12:00 +21°C° 0 mm 3 m/s 693 mmHg 54%
    13:00 +21°C° 0 mm 3 m/s 693 mmHg 56%
    14:00 +21°C° 0 mm 2 m/s 692 mmHg 58%
    15:00 +21°C° 0 mm 2 m/s 692 mmHg 60%
    16:00 +20°C° 0 mm 2 m/s 691 mmHg 67%
    17:00 +19°C° 0 mm 1 m/s 691 mmHg 73%
    18:00 +18°C° 0 mm 1 m/s 691 mmHg 79%
    19:00 +18°C° 0 mm 1 m/s 691 mmHg 81%
    20:00 +16°C° 0 mm 1 m/s 691 mmHg 83%
    21:00 +16°C° 0 mm 1 m/s 691 mmHg 84%
    22:00 +15°C° 0 mm 1 m/s 691 mmHg 84%
    23:00 +15°C° 0 mm 1 m/s 691 mmHg 83%

    Depois de amanhã, 25 Setembro, Quarta-feira

    Tempo Temperatura Precipitação Vento Pressão Humidade
    00:00 +15°C° 0 mm 1 m/s 691 mmHg 83%
    01:00 +15°C° 0 mm 1 m/s 691 mmHg 82%
    02:00 +14°C° 0 mm 1 m/s 691 mmHg 81%
    03:00 +14°C° 0 mm 1 m/s 691 mmHg 80%
    04:00 +14°C° 0 mm 1 m/s 691 mmHg 78%
    05:00 +14°C° 0 mm 1 m/s 690 mmHg 77%
    06:00 +14°C° 0 mm 1 m/s 690 mmHg 75%
    07:00 +16°C° 0 mm 1 m/s 691 mmHg 69%
    08:00 +19°C° 0 mm 1 m/s 692 mmHg 62%
    09:00 +21°C° 0 mm 1 m/s 692 mmHg 56%
    10:00 +23°C° 0 mm 2 m/s 692 mmHg 53%
    11:00 +24°C° 0 mm 2 m/s 692 mmHg 50%
    12:00 +25°C° 0 mm 3 m/s 692 mmHg 47%
    13:00 +25°C° 0 mm 2 m/s 692 mmHg 47%
    14:00 +25°C° 0 mm 2 m/s 691 mmHg 48%
    15:00 +26°C° 0 mm 2 m/s 691 mmHg 48%
    16:00 +24°C° 0 mm 2 m/s 691 mmHg 55%
    17:00 +22°C° 0 mm 1 m/s 691 mmHg 61%
    18:00 +20°C° 0 mm 1 m/s 691 mmHg 68%
    19:00 +20°C° 0 mm 1 m/s 691 mmHg 70%
    20:00 +19°C° 0 mm 1 m/s 691 mmHg 73%
    21:00 +18°C° 0 mm 1 m/s 692 mmHg 75%
    22:00 +18°C° 0 mm 1 m/s 692 mmHg 77%
    23:00 +18°C° 0 mm 1 m/s 692 mmHg 79%

    26 Setembro, Quinta-feira

    Tempo Temperatura Precipitação Vento Pressão Humidade
    00:00 +16°C° 0 mm 1 m/s 692 mmHg 81%
    01:00 +16°C° 0 mm 1 m/s 692 mmHg 82%
    02:00 +16°C° 0 mm 1 m/s 692 mmHg 83%
    03:00 +14°C° 0 mm 0 m/s 692 mmHg 83%
    04:00 +14°C° 0 mm 0 m/s 692 mmHg 82%
    05:00 +14°C° 0 mm 0 m/s 692 mmHg 82%
    06:00 +15°C° 0 mm 1 m/s 692 mmHg 81%
    07:00 +18°C° 0 mm 1 m/s 693 mmHg 74%
    08:00 +20°C° 0 mm 1 m/s 693 mmHg 68%
    09:00 +21°C° 0 mm 1 m/s 693 mmHg 61%
    10:00 +21°C° 0 mm 2 m/s 693 mmHg 59%
    11:00 +23°C° 0 mm 2 m/s 693 mmHg 56%
    12:00 +25°C° 0 mm 2 m/s 693 mmHg 53%
    13:00 +25°C° 0 mm 2 m/s 692 mmHg 52%
    14:00 +25°C° 0 mm 2 m/s 692 mmHg 51%
    15:00 +26°C° 0 mm 2 m/s 691 mmHg 50%
    16:00 +24°C° 0 mm 2 m/s 691 mmHg 58%
    17:00 +22°C° 0 mm 1 m/s 691 mmHg 66%
    18:00 +18°C° 0 mm 0 m/s 690 mmHg 74%
    19:00 +18°C° 0 mm 0 m/s 691 mmHg 76%
    20:00 +19°C° 0 mm 1 m/s 691 mmHg 78%
    21:00 +19°C° 0 mm 1 m/s 692 mmHg 79%
    22:00 +18°C° 0 mm 1 m/s 692 mmHg 81%
    23:00 +18°C° 0 mm 1 m/s 692 mmHg 82%

    27 Setembro, Sexta-feira

    Tempo Temperatura Precipitação Vento Pressão Humidade
    00:00 +16°C° 0 mm 1 m/s 692 mmHg 83%
    01:00 +16°C° 0 mm 1 m/s 692 mmHg 84%
    02:00 +16°C° 0 mm 1 m/s 692 mmHg 85%
    03:00 +16°C° 0 mm 1 m/s 692 mmHg 85%
    04:00 +15°C° 0 mm 0 m/s 692 mmHg 86%
    05:00 +14°C° 0 mm 0 m/s 692 mmHg 86%
    06:00 +14°C° 0 mm 0 m/s 692 mmHg 86%
    07:00 +18°C° 0 mm 1 m/s 693 mmHg 80%
    08:00 +20°C° 0 mm 1 m/s 693 mmHg 73%
    09:00 +20°C° 0 mm 2 m/s 694 mmHg 67%
    10:00 +21°C° 0 mm 2 m/s 694 mmHg 64%
    11:00 +22°C° 0 mm 3 m/s 693 mmHg 61%
    12:00 +24°C° 0 mm 3 m/s 693 mmHg 57%
    13:00 +24°C° 0 mm 3 m/s 693 mmHg 57%
    14:00 +24°C° 0 mm 3 m/s 692 mmHg 56%
    15:00 +24°C° 0 mm 2 m/s 692 mmHg 56%
    16:00 +23°C° 0 mm 2 m/s 692 mmHg 59%
    17:00 +21°C° 0 mm 1 m/s 692 mmHg 63%
    18:00 +20°C° 0 mm 1 m/s 691 mmHg 66%
    19:00 +20°C° 0 mm 1 m/s 692 mmHg 68%
    20:00 +19°C° 0 mm 1 m/s 692 mmHg 71%
    21:00 +18°C° 0 mm 1 m/s 692 mmHg 73%
    22:00 +18°C° 0 mm 1 m/s 692 mmHg 74%
    23:00 +16°C° 0 mm 1 m/s 692 mmHg 76%

    28 Setembro, Sábado

    Tempo Temperatura Precipitação Vento Pressão Humidade
    00:00 +16°C° 0 mm 1 m/s 692 mmHg 78%
    01:00 +16°C° 0 mm 1 m/s 692 mmHg 78%
    02:00 +16°C° 0 mm 1 m/s 691 mmHg 78%
    03:00 +15°C° 0 mm 1 m/s 691 mmHg 78%
    04:00 +15°C° 0 mm 1 m/s 691 mmHg 78%
    05:00 +15°C° 0 mm 1 m/s 691 mmHg 77%
    06:00 +15°C° 0 mm 1 m/s 691 mmHg 76%
    07:00 +18°C° 0 mm 1 m/s 691 mmHg 69%
    08:00 +20°C° 0 mm 1 m/s 691 mmHg 61%
    09:00 +21°C° 0 mm 2 m/s 691 mmHg 53%
    10:00 +23°C° 0 mm 2 m/s 691 mmHg 50%
    11:00 +24°C° 0 mm 2 m/s 691 mmHg 47%
    12:00 +25°C° 0 mm 3 m/s 691 mmHg 44%
    13:00 +25°C° 0 mm 3 m/s 691 mmHg 44%
    14:00 +25°C° 0 mm 3 m/s 690 mmHg 45%
    15:00 +25°C° 0 mm 3 m/s 690 mmHg 45%
    16:00 +22°C° 0 mm 3 m/s 690 mmHg 52%
    17:00 +20°C° 0 mm 2 m/s 690 mmHg 58%
    18:00 +19°C° 0 mm 2 m/s 690 mmHg 64%
    19:00 +18°C° 0 mm 2 m/s 691 mmHg 65%
    20:00 +18°C° 0 mm 2 m/s 691 mmHg 66%
    21:00 +18°C° 0 mm 2 m/s 692 mmHg 67%
    22:00 +17°C° 0 mm 2 m/s 692 mmHg 69%
    23:00 +18°C° 0 mm 1 m/s 692 mmHg 71%
    Mostrar mais